Regional Weather Roundup
Issued by NWS

Home | Current Version | Previous Version | Text Only | Print | Product List | Glossary On
Versions: 1 2 3 4 5 6 7 8 9 10 11 12 13 14 15 16 17 18 19 20 21 22 23 24 25 26 27 28 29 30 31 32 33 34 35 36 37 38 39 40 41 42 43 44 45 46 47 48 49 50
000
ASUS45 KTFX 281719
RWRMT
MONTANA HOURLY WEATHER ROUNDUP
NATIONAL WEATHER SERVICE GREAT FALLS MT
1019 AM MST SAT FEB 28 2015

NOTE: "FAIR" INDICATES FEW OR NO CLOUDS BELOW 12000 FEET WITH NO
SIGNIFICANT WEATHER AND/OR OBSTRUCTIONS TO VISIBILITY.

* THESE STATIONS ARE NOT UNDER NWS QUALITY CONTROL. THEY DO NOT
   REPORT WEATHER SUCH AS PRECIPITATION OR FOG.

MTZ001>007-043-281800-
WEST OF THE DIVIDE
CITY           SKY/WX    TMP DP  RH WIND       PRES   REMARKS
KALISPELL      SUNNY     25   7  46 NE10      30.16R WCI  15
MISSOULA       SUNNY     25   5  42 SE18      30.12R WCI  11
BUTTE          LGT SNOW  12   5  73 VRB3      29.99R VSB 2 1/2
MULLAN PASS    SUNNY     12   3  67 VRB3      29.91R
* ANACONDA     SUNNY     12   5  73 N8         N/A
* ESSEX        N/A       15   3  59 NE4        N/A
* EUREKA APT   SUNNY     25   7  46 CALM      30.22R
* HAMILTON APT PTCLDY    23   5  46 N15       30.05S WCI  10
* LIBBY APT    SUNNY     25   7  46 CALM      30.20S
* LINCOLN      N/A       13   2  61 NE8        N/A   WCI   2
* LOOKOUT PASS N/A       21   3  45 W2         N/A
* POLSON       N/A       22   7  52 N3         N/A
* RONAN APT    SUNNY     27  10  49 N/A        N/A
* SEELEY LAKE  N/A       15   4  61 N1         N/A
* THOMP F APT  SUNNY     14   3  61 NW8G20     N/A   WCI   3
* YAAK HILL    N/A       24   5  44 N2         N/A
$$

MTZ008-052>055-281800-
SOUTHWEST MONTANA
CITY           SKY/WX    TMP DP  RH WIND       PRES   REMARKS
BOZEMAN        HAZE      16  10  77 W6        30.06S WCI   7
DILLON         HAZE      16   7  67 NE17      29.97R
* W YELLOWSTON PTCLDY    12   1  61 NE3        N/A
* THREE FORKS  PTCLDY    19   7  59 N/A        N/A
* TWIN BRIDGES PTCLDY    16   3  56 N20G29     N/A   WCI  -1
* BOULDER HILL N/A        8   3  80 N11        N/A   WCI  -7
* MONIDA PASS  N/A       11   6  80 N6         N/A   WCI   1
* RAYNOLDS PAS N/A        4   3  96 NW11       N/A   WCI -12
* WHITEHALL    N/A       17   8  68 E5G10      N/A   WCI   9
* WISE RIVER   N/A       15   2  56 E10        N/A   WCI   3
$$

MTZ009>010-012-014-046-048-049-054-281800-
EAST SLOPES AND CENTRAL MONTANA
CITY           SKY/WX    TMP DP  RH WIND       PRES   REMARKS
CUT BANK       SUNNY     12   7  80 W8        30.14S
GREAT FALLS    PTCLDY    16   7  67 N3        30.16S
HELENA         PTCLDY    19   7  59 N/A       30.13S
MALMSTROM AFB  LGT SNOW  12  10  92 NW6       30.19R WCI   2
* CONRAD       SUNNY     14   9  80 W7         N/A   WCI   4
* DEARBORN     N/A       16   8  71 N/A        N/A
* EAST GLACIER N/A        6  -2  69 E3         N/A
* MONARCH      N/A        9   4  80 NW1        N/A
* PENDROY      N/A       13   7  77 N4         N/A
* ROGERS PASS  N/A        9   4  80 S6         N/A   WCI  -1
* SWEET GRASS  N/A       11   9  92 W11        N/A   WCI  -3
* WHITE SULPH  N/A       13   5  70 NW7        N/A   WCI   3
$$

MTZ011-013-016-021-035-040-045-047-050-051-281800-
NORTH CENTRAL MONTANA
CITY           SKY/WX    TMP DP  RH WIND       PRES   REMARKS
HAVRE          SUNNY     16   7  67 W12       30.22F WCI   3
LEWISTOWN      HAZE      12   7  80 W6        30.12R WCI   2
* N BAR RANCH  CLOUDY    16   5  62 W10       30.07R WCI   4
* CHINOOK      N/A       14   3  61 W13       30.23F
* FORT BENTON  SUNNY     14   7  73 W8        30.25R WCI   3
* CHESTER      N/A       12   4  70 E5         N/A   WCI   4
* DENTON       N/A       15   8  74 SW2        N/A
* GEYSER       N/A       13   6  73 W14G19     N/A   WCI  -2
* JUDITH GAP   N/A       11   9  92 N11        N/A   WCI  -3
* LOMA         N/A       13   7  77 W7         N/A   WCI   3
$$

MTZ017>020-022>027-061-062-281800-
NORTHEAST MONTANA
CITY           SKY/WX    TMP DP  RH WIND       PRES   REMARKS
GLASGOW        CLOUDY    12   1  61 NW13      30.20R WCI  -3
GLENDIVE       CLOUDY    16   9  74 W12       30.17S VSB 3    WCI   3
JORDAN         PTCLDY    16   9  74 NW14      30.17S WCI   2
SIDNEY         PTCLDY    12   3  67 NW3       30.22R
WOLF POINT     CLOUDY    16   3  56 NW14      30.21R WCI   2
* BEAVER HILL  N/A       10   5  80 W11        N/A   WCI  -4
* CIRCLE       N/A       14   9  80 W15        N/A   WCI  -1
* LINDSAY DVD  N/A       12   7  80 W16G22     N/A   WCI  -5
* NAVAJO       N/A        7   1  76 NW16       N/A   WCI -11
* POPLAR APT   PTCLDY    12   3  67 NW13      30.21R WCI  -3
* SACO         N/A       13   2  61 W9         N/A   WCI   1
* SCOBEY APT   PTCLDY    10  -6  48 NW13       N/A   WCI  -5
$$

MTZ028>042-056>058-281800-
SOUTHCENTRAL AND SOUTHEAST MONTANA
CITY           SKY/WX    TMP DP  RH WIND       PRES   REMARKS
BAKER          CLOUDY    10   3  73 NW17      30.14R WCI  -8
BILLINGS       PTSUNNY   19  10  68 SW3       30.13S
LIVINGSTON     CLOUDY    14   7  73 E5        30.06S WCI   6
MILES CITY     CLOUDY    18   7  62 W13       30.19S WCI   5
* BIG TIMBER A PTCLDY    16   7  67 CALM      30.08F
* FORSYTH APT  PTCLDY    18   9  68 W9        30.19F WCI   7
* LAUREL APT   SUNNY     18   9  68 N/A        N/A
* ROUNDUP APT  PTCLDY    18   5  57 N/A        N/A
* ALZADA       N/A       13   6  73 NW11       N/A
* HYSHAM       N/A       16   6  64 N2G9       N/A
* LAME DEER    N/A       10   3  73 NW8G13     N/A   WCI  -2
* REED POINT   N/A       19  10  68 W3         N/A
$$

REGIONAL REPORTS...DAKOTAS
CITY           SKY/WX    TMP DP  RH WIND       PRES   REMARKS
WILLISTON      LGT SNOW  10   1  67 NW15      30.18S WCI  -7
DICKINSON      SUNNY     12   0  58 NW23      30.10R WCI  -7
BEACH          LGT SNOW  12   5  73 NW16      30.14S WCI  -5
CROSBY         LGT SNOW   5   0  80 NW16      30.16S WCI -14
TIOGA          FOG        5   1  83 W15       30.15R WCI -13
WATFORD CITY   LGT SNOW   9   1  70 NW16      30.15S WCI  -8
BISMARCK       CLOUDY    19   9  65 W8        30.12R WCI   9
GRAND FORKS    PTSUNNY   12   3  67 S22       30.19F WCI  -7
FARGO          SUNNY     19   7  59 S15       30.24F WCI   5
BUFFALO SD     SUNNY     12   3  67 NW24G33   30.05R WCI  -8
RAPID CITY     SUNNY     19   7  59 N22       30.10S WCI   2
$$

REGIONAL REPORTS...WYOMING/IDAHO/WASHINGTON
CITY           SKY/WX    TMP DP  RH WIND       PRES   REMARKS
GILLETTE       CLOUDY    16   7  67 NW9       30.07S WCI   5
SHERIDAN       CLOUDY    16   9  74 NW6       30.11S WCI   7
CODY           CLOUDY    14  10  84 NE7       30.01S WCI   4
YELLOWSTONE LA SUNNY      3  -2  79 CALM      29.82S
SALMON         PTCLDY    28  10  47 NE10      29.94R WCI  19
MULLAN PASS    SUNNY     12   3  67 VRB3      29.91S
SAND POINT     SUNNY     32   5  32 NE20      30.16R WCI  20
SPOKANE        SUNNY     32   7  35 NE17      30.09R WCI  21
$$

REGIONAL REPORTS...ALBERTA
CITY           SKY/WX    TMP DP  RH WIND       PRES   REMARKS
CALGARY        PTSUNNY   21   3  45 NW10G17   30.12S WCI  10
LETHBRIDGE     SUNNY     19  12  74 W13G18    30.18S WCI   6
MEDICINE HAT   SUNNY     12   9  88 SW13      30.20F WCI  -3
EDMONTON       CLOUDY    12   5  73 W8        30.15S
WATERTON GATE  N/A       16   5  62 SW6        N/A   WCI   7
CARDSTON       N/A       18   7  62 W8         N/A   WCI   8
MILK RIVER     N/A       10   5  80 W9         N/A   WCI  -3
$$

REGIONAL REPORTS...SASKATCHEWAN
CITY           SKY/WX    TMP DP  RH WIND       PRES   REMARKS
SWIFT CURRENT  LGT SNOW   9   5  84 W17G26    30.10F WCI  -9
REGINA         CLOUDY     0  -4  83 W9        30.15S WCI -15
ASSINIBOIA     N/A        7   0  73 W17        N/A   WCI -11
CORONACH       N/A        9   1  70 NW13       N/A   WCI  -7

$$




USA.gov is the U.S. government's official web portal to all federal, state and local government web resources and services.